Dewpoint
55 55 54 55 55 52 47 47 46 45 45 50 51 52 53 54 54 54 54 54 51 50 50 50 50 50 51 51 52 52 52 53 53 53 53 53 53 54
55 55 54 54 54 53 49 50 48 46 46 48 50 53 54 51 53 54 55 54 51 50 49 49 48 49 49 49 49 50 50 50 50 50 50 49 49 47
55 54 54 55 54 54 52 50 48 47 42 44 48 53 54 54 55 56 55 55 49 47 48 47 47 46 46 46 45 45 44 44 44 43 43 43 43 42
54 54 54 54 53 52 53 51 47 47 46 45 46 49 52 54 53 53 53 53 45 41 41 41 41 41 41 40 39 37 36 36 35 35 36 36 36 36
54 54 53 53 51 51 52 52 50 51 51 48 47 49 52 54 54 55 51 46 41 38 38 39 39 39 38 36 35 34 34 33 31 30 29 28 28 28
54 53 53 52 52 52 51 51 52 52 52 51 50 51 51 52 53 53 48 44 41 37 37 37 36 35 35 34 33 32 31 30 28 26 24 22 21 21
52 53 53 52 52 52 52 52 52 52 51 51 50 50 50 52 51 52 50 39 36 35 33 33 33 33 33 33 32 32 29 26 22 20 18 18 19 20
51 52 51 51 51 50 51 51 52 51 50 50 50 49 50 50 51 50 46 39 38 34 31 29 32 31 31 30 30 29 25 20 17 16 17 18 19 19
50 51 50 50 51 50 47 46 42 40 41 49 50 49 49 47 50 47 43 39 34 29 29 26 29 28 30 29 28 28 23 17 15 17 18 18 18 19
50 50 51 51 51 50 45 39 34 33 34 35 34 32 33 35 37 37 34 26 26 26 29 23 27 25 29 28 28 27 24 21 13 14 16 17 17 17
52 51 51 51 50 48 42 35 29 28 29 29 29 29 29 30 32 32 30 29 23 22 24 23 24 24 27 28 27 26 23 23 16 12 12 12 13 13
41 38 38 45 48 45 41 34 29 25 24 24 24 24 24 25 25 28 29 26 22 21 23 23 23 24 23 27 28 26 12 13 10 10 10 10 11 13
34 33 33 36 37 36 34 31 26 24 23 22 21 21 21 21 22 23 24 26 22 20 23 25 23 21 22 13 12 9 9 11 11 9 9 11 13 13
30 30 31 31 30 29 27 26 24 23 22 21 21 20 20 20 21 22 23 23 24 23 25 25 21 21 19 14 3 4 9 10 8 8 12 13 13 14
27 27 26 26 25 24 24 24 23 22 21 20 20 20 21 21 19 18 17 16 16 16 17 17 14 11 13 10 7 9 8 7 8 11 14 13 14 15
24 24 24 23 23 24 25 24 24 24 23 21 20 21 19 16 15 15 15 13 11 10 8 8 9 12 12 9 7 10 6 6 9 12 13 15 15 15
26 26 25 24 23 23 24 24 24 22 21 19 17 14 12 12 12 13 13 10 8 6 6 7 8 9 8 7 12 6 6 9 12 13 14 14 15 17
27 26 25 24 23 21 20 18 17 16 14 13 12 11 11 12 12 12 12 11 9 7 7 8 10 11 10 11 10 7 9 12 12 13 15 16 16 18
24 24 23 22 20 18 17 16 14 13 13 14 14 13 12 11 12 12 12 10 8 6 5 6 8 9 11 12 11 9 11 12 12 15 16 17 17 18
22 21 20 17 15 13 12 12 12 13 13 13 14 14 13 12 11 11 12 12 8 5 3 3 5 6 9 11 11 13 15 12 12 14 16 16 17 19
15 15 14 13 14 14 15 15 15 14 14 14 13 13 13 11 10 9 7 7 9 4 4 4 4 6 9 9 11 10 11 12 13 15 16 16 16 18
12 12 13 13 13 13 14 13 13 13 12 12 13 14 13 12 10 10 11 10 7 7 5 5 5 6 7 6 6 8 10 12 16 17 17 18 18 20
13 13 13 13 13 13 12 12 12 11 11 11 11 11 12 10 10 9 9 8 6 7 6 7 7 6 7 7 6 8 10 11 14 16 18 27 21 21
Wind_Speed
22 21 20 14 9 16 14 17 13 12 16 10 8 15 13 12 15 14 13 13 20 24 24 23 22 22 21 20 18 17 18 18 17 17 17 17 17 16
20 22 18 15 12 12 9 5 15 13 12 10 15 10 13 14 10 10 13 13 8 12 11 10 12 12 13 13 11 9 10 9 9 8 4 7 8 9
18 23 21 14 14 11 13 19 10 10 12 11 5 10 9 5 6 8 8 6 12 14 10 7 4 5 4 7 12 18 18 18 17 16 15 14 14 13
19 22 22 16 12 10 4 9 19 15 9 13 12 8 7 6 7 10 6 5 12 16 19 19 19 21 21 21 22 22 21 20 19 18 17 15 14 14
18 19 22 22 20 12 9 7 7 5 5 4 13 8 5 4 3 1 8 11 13 20 20 19 19 21 22 21 21 20 19 19 18 17 16 15 14 13
15 18 19 22 23 20 15 10 6 3 4 9 15 10 8 4 6 8 6 5 10 10 12 19 17 20 19 18 16 16 17 17 15 12 11 11 10 10
15 15 15 18 21 19 16 15 15 13 12 14 14 9 8 7 10 8 11 8 6 6 11 7 9 10 10 12 13 14 14 13 12 9 10 10 10 10
14 16 17 21 24 25 25 20 19 17 14 13 14 11 13 13 12 14 11 8 8 5 5 7 6 7 9 9 11 11 10 10 11 11 10 11 12 11
17 15 16 15 20 17 16 13 7 7 3 13 19 14 13 5 9 14 12 7 6 4 7 7 4 7 9 9 10 7 6 6 9 10 10 10 10 11
17 17 17 15 18 17 16 11 10 12 6 7 8 6 2 1 2 2 7 12 13 9 4 5 3 4 6 7 6 3 3 5 7 10 10 11 11 13
14 13 16 17 19 22 20 18 18 18 21 25 24 23 23 20 7 9 9 12 4 2 6 4 3 4 2 5 6 3 4 5 7 8 7 9 12 16
8 9 12 2 13 29 23 24 21 16 14 13 14 18 18 20 22 15 7 9 9 5 1 4 5 3 4 1 1 5 4 5 6 7 6 8 10 12
10 10 12 16 21 22 19 17 16 20 18 16 15 15 15 17 16 16 16 10 8 6 2 2 5 3 2 2 5 3 4 4 6 6 8 10 12 11
18 17 19 29 30 30 27 30 27 21 17 17 16 15 14 14 14 15 16 17 16 14 9 7 4 3 3 1 1 1 3 6 4 6 8 10 12 12
24 30 33 35 34 31 28 25 20 18 16 17 16 15 13 13 13 15 15 16 16 13 11 9 7 5 3 2 2 3 7 6 3 9 9 11 10 10
22 23 25 27 25 22 21 18 16 15 16 14 14 14 12 11 11 9 11 10 11 9 8 6 5 2 1 1 3 5 7 6 9 10 11 10 9 7
20 19 19 21 19 18 18 15 14 14 16 13 12 13 11 10 10 8 8 8 9 7 7 4 4 1 1 2 4 6 7 7 9 12 12 10 8 5
18 19 19 17 17 17 16 15 15 14 12 12 12 11 11 10 9 9 8 7 7 6 5 5 5 2 5 5 2 6 7 9 11 11 11 10 9 6
20 18 17 15 15 15 14 13 14 12 11 11 11 11 11 10 8 8 7 6 5 5 4 4 6 6 5 5 3 1 7 11 11 12 10 10 10 10
16 15 15 15 14 13 12 13 12 11 11 11 11 10 8 8 7 7 6 5 4 3 3 4 5 7 6 6 7 11 8 7 10 12 12 11 13 19
16 16 16 15 14 13 12 13 12 12 11 11 10 9 8 7 7 6 6 5 2 3 2 4 6 3 6 8 8 9 10 10 7 13 11 10 10 10
15 16 15 14 13 12 11 11 11 11 10 9 8 7 7 6 6 5 5 4 5 4 5 5 5 5 7 8 11 12 12 11 13 9 16 14 7 4
15 14 14 13 11 11 11 11 10 10 9 8 7 7 6 6 5 4 4 3 4 5 5 7 7 6 7 8 9 12 13 12 11 11 10 11 20 21
Wind_Direction
191 186 187 202 202 226 190 173 177 185 200 192 187 211 214 215 225 211 222 229 226 232 235 242 247 252 255 260 266 272 273 275 277 279 281 284 287 294
195 192 187 195 203 227 255 219 175 188 178 189 205 185 197 213 218 219 239 239 235 227 232 246 256 263 274 274 271 274 284 297 307 323 346 45 57 44
188 187 192 177 187 213 219 215 222 253 225 198 158 176 174 184 85 252 230 203 70 52 55 54 65 80 85 85 85 82 76 77 72 68 63 62 60 54
187 188 188 174 174 175 231 250 190 221 239 221 232 200 202 169 206 249 287 74 98 85 91 91 89 90 92 91 90 88 85 82 78 74 64 51 41 35
186 179 186 181 191 192 192 221 226 176 183 235 268 240 209 170 157 267 123 94 102 101 87 89 93 97 97 97 95 94 90 82 73 64 59 50 33 23
193 184 178 181 191 194 202 216 220 207 215 228 240 228 221 222 172 207 186 122 129 98 93 94 95 97 96 93 92 90 87 84 74 61 54 44 23 3
194 194 191 183 188 181 192 202 201 200 214 225 230 225 226 214 213 206 199 164 136 160 114 109 113 103 93 82 83 83 80 68 60 42 28 21 11 356
188 197 204 198 194 196 199 207 198 204 216 222 234 220 226 219 226 215 188 184 216 164 120 120 119 109 106 100 89 83 70 56 33 15 18 11 356 344
204 202 203 201 203 203 197 180 116 73 64 244 237 232 241 247 218 210 200 180 164 104 116 112 103 109 115 110 99 77 44 31 20 5 4 359 343 333
202 207 200 194 193 181 170 137 93 53 47 77 86 59 39 30 122 141 149 109 86 64 57 123 124 121 126 128 120 97 346 337 351 358 349 343 339 329
203 207 215 205 194 171 164 143 115 97 83 86 83 74 63 57 85 115 137 144 110 94 28 107 131 127 143 183 187 189 283 284 313 333 328 327 331 328
85 51 32 264 205 178 171 159 149 136 114 91 74 63 58 54 46 46 102 140 123 116 31 100 142 150 159 37 5 270 274 251 271 292 287 306 332 329
88 64 58 87 102 101 110 118 119 111 100 92 82 71 61 56 52 50 51 74 107 86 74 130 125 104 32 152 208 203 286 346 324 323 325 335 333 329
82 77 78 83 84 88 94 108 108 104 102 94 84 71 69 65 62 64 64 65 62 81 60 65 98 109 101 140 120 221 328 318 344 325 335 331 333 329
89 90 87 85 85 84 89 87 89 94 93 91 92 87 81 84 85 81 76 76 73 71 72 70 91 115 94 45 345 338 341 342 334 338 341 337 325 323
88 86 84 86 80 86 79 73 78 82 90 93 96 98 102 96 85 80 84 82 81 78 75 62 66 30 73 33 339 328 353 339 335 339 333 321 323 323
100 94 91 85 86 83 85 92 92 86 90 100 99 99 99 98 96 97 91 85 85 85 80 63 37 62 308 332 339 350 346 339 339 332 327 330 329 334
91 87 87 90 92 92 91 89 88 92 100 103 103 105 104 101 98 94 94 93 93 78 59 32 25 337 203 193 358 335 339 341 330 326 328 329 314 331
82 84 85 85 87 89 94 93 93 93 95 92 93 94 95 97 93 90 91 96 91 87 74 44 25 11 342 333 71 216 327 328 326 324 328 308 301 290
79 83 85 88 90 94 96 98 97 92 91 92 90 88 90 97 99 96 85 79 80 60 44 35 31 11 350 341 315 308 264 305 316 315 312 312 290 269
82 83 82 83 85 84 82 80 79 81 82 86 86 85 80 87 88 93 90 65 344 26 16 14 19 232 273 294 304 322 326 291 261 290 292 297 286 282
80 80 80 81 85 90 96 100 98 93 89 85 81 78 82 91 88 74 41 35 34 6 354 334 337 329 323 319 319 320 315 326 299 261 238 237 265 289
78 80 77 78 79 79 83 82 81 81 82 85 81 77 61 72 60 57 48 39 21 349 349 331 328 317 314 313 317 315 322 319 335 326 309 233 237 255